When you browse on this site, cookies collect data to enhance your experience and personalize the content and advertising you see.
Visit our Privacy Policy to learn more. By continuing to use the site, you agree to this use of cookies and data.
  • In France
  • List of Countries
  • For 7 days
  • Water Temperature
  • Satellite Maps
  • Weather Map
  • Weather Widgets
  • user-avatar
    Login

    Hourly Weather Kakanj

    Today, 23 March, Saturday

    Time Temperature Precipitation Wind Pressure Humidity
    00:00 +6°C° 0 mm 0 mps 730 mmHg 75%
    01:00 +5°C° 0 mm 0 mps 730 mmHg 76%
    02:00 +5°C° 0 mm 0 mps 730 mmHg 76%
    03:00 +5°C° 0 mm 0 mps 729 mmHg 77%
    04:00 +5°C° 0 mm 0 mps 729 mmHg 77%
    05:00 +5°C° 0 mm 0 mps 729 mmHg 75%
    06:00 +6°C° 0 mm 0 mps 729 mmHg 73%
    07:00 +7°C° 0 mm 0 mps 730 mmHg 67%
    08:00 +10°C° 0 mm 1 mps 730 mmHg 61%
    09:00 +12°C° 0 mm 1 mps 729 mmHg 54%
    10:00 +15°C° 0 mm 1 mps 729 mmHg 48%
    11:00 +15°C° 0 mm 2 mps 729 mmHg 48%
    12:00 +16°C° 0 mm 2 mps 729 mmHg 48%
    13:00 +17°C° 0 mm 3 mps 729 mmHg 47%
    14:00 +17°C° 0 mm 2 mps 729 mmHg 49%
    15:00 +16°C° 0 mm 2 mps 728 mmHg 51%
    16:00 +16°C° 0 mm 2 mps 728 mmHg 53%
    17:00 +14°C° 0 mm 2 mps 728 mmHg 61%
    18:00 +12°C° 0 mm 1 mps 728 mmHg 68%
    19:00 +10°C° 0 mm 1 mps 728 mmHg 76%
    20:00 +10°C° 0 mm 1 mps 728 mmHg 78%
    21:00 +8°C° 0 mm 0 mps 728 mmHg 80%
    22:00 +8°C° 0 mm 0 mps 728 mmHg 81%
    23:00 +7°C° 0 mm 0 mps 728 mmHg 82%

    Tomorrow, 24 March, Sunday

    Time Temperature Precipitation Wind Pressure Humidity
    00:00 +7°C° 0 mm 0 mps 728 mmHg 82%
    01:00 +6°C° 0 mm 0 mps 728 mmHg 83%
    02:00 +6°C° 0 mm 0 mps 728 mmHg 82%
    03:00 +6°C° 0 mm 0 mps 728 mmHg 81%
    04:00 +5°C° 0 mm 0 mps 728 mmHg 80%
    05:00 +6°C° 0 mm 0 mps 728 mmHg 77%
    06:00 +7°C° 0 mm 0 mps 728 mmHg 73%
    07:00 +7°C° 0 mm 0 mps 728 mmHg 69%
    08:00 +10°C° 0 mm 0 mps 728 mmHg 57%
    09:00 +14°C° 0 mm 1 mps 728 mmHg 45%
    10:00 +18°C° 0 mm 1 mps 728 mmHg 33%
    11:00 +19°C° 0 mm 1 mps 728 mmHg 30%
    12:00 +20°C° 0 mm 1 mps 727 mmHg 28%
    13:00 +21°C° 0 mm 1 mps 727 mmHg 26%
    14:00 +21°C° 0 mm 1 mps 727 mmHg 27%
    15:00 +20°C° 0 mm 1 mps 726 mmHg 28%
    16:00 +18°C° 0 mm 0 mps 725 mmHg 29%
    17:00 +16°C° 0 mm 0 mps 725 mmHg 35%
    18:00 +13°C° 0 mm 0 mps 725 mmHg 41%
    19:00 +11°C° 0 mm 0 mps 725 mmHg 47%
    20:00 +12°C° 0 mm 1 mps 724 mmHg 50%
    21:00 +11°C° 0 mm 1 mps 724 mmHg 52%
    22:00 +10°C° 0 mm 1 mps 724 mmHg 54%
    23:00 +10°C° 0 mm 1 mps 724 mmHg 56%

    Day after tomorrow, 25 March, Monday

    Time Temperature Precipitation Wind Pressure Humidity
    00:00 +10°C° 0 mm 1 mps 724 mmHg 59%
    01:00 +9°C° 0 mm 1 mps 724 mmHg 61%
    02:00 +9°C° 0 mm 1 mps 723 mmHg 63%
    03:00 +8°C° 0 mm 1 mps 723 mmHg 65%
    04:00 +8°C° 0 mm 1 mps 722 mmHg 68%
    05:00 +9°C° 0 mm 1 mps 722 mmHg 67%
    06:00 +9°C° 0 mm 1 mps 722 mmHg 67%
    07:00 +10°C° 0 mm 1 mps 722 mmHg 67%
    08:00 +13°C° 0 mm 1 mps 722 mmHg 58%
    09:00 +15°C° 0 mm 0 mps 722 mmHg 49%
    10:00 +17°C° 0 mm 0 mps 722 mmHg 39%
    11:00 +18°C° 0 mm 0 mps 722 mmHg 37%
    12:00 +21°C° 0 mm 1 mps 721 mmHg 34%
    13:00 +22°C° 0 mm 1 mps 721 mmHg 31%
    14:00 +21°C° 0 mm 1 mps 720 mmHg 33%
    15:00 +21°C° 0 mm 1 mps 720 mmHg 35%
    16:00 +20°C° 0 mm 1 mps 719 mmHg 37%
    17:00 +18°C° 0 mm 1 mps 719 mmHg 46%
    18:00 +15°C° 0 mm 1 mps 720 mmHg 54%
    19:00 +13°C° 0 mm 1 mps 720 mmHg 63%
    20:00 +12°C° 0.6 mm 2 mps 721 mmHg 72%
    21:00 +9°C° 0.6 mm 3 mps 722 mmHg 81%
    22:00 +7°C° 0.6 mm 4 mps 722 mmHg 91%
    23:00 +6°C° 1.7 mm 4 mps 723 mmHg 90%

    26 March, Tuesday

    Time Temperature Precipitation Wind Pressure Humidity
    00:00 +5°C° 1.7 mm 4 mps 723 mmHg 90%
    01:00 +4°C° 1.7 mm 4 mps 724 mmHg 89%
    02:00 +3°C° 0.2 mm 3 mps 724 mmHg 89%
    03:00 +3°C° 0.2 mm 3 mps 724 mmHg 89%
    04:00 +3°C° 0.2 mm 2 mps 724 mmHg 89%
    05:00 +3°C° 0.1 mm 2 mps 724 mmHg 86%
    06:00 +2°C° 0.1 mm 3 mps 725 mmHg 84%
    07:00 +2°C° 0.1 mm 3 mps 725 mmHg 81%
    08:00 +2°C° 0.2 mm 3 mps 725 mmHg 79%
    09:00 +3°C° 0.2 mm 3 mps 726 mmHg 76%
    10:00 +3°C° 0.2 mm 3 mps 726 mmHg 74%
    11:00 +4°C° 0.3 mm 3 mps 726 mmHg 72%
    12:00 +4°C° 0.3 mm 3 mps 726 mmHg 70%
    13:00 +4°C° 0.3 mm 3 mps 726 mmHg 68%
    14:00 +5°C° 0.1 mm 3 mps 726 mmHg 67%
    15:00 +5°C° 0.1 mm 3 mps 726 mmHg 65%
    16:00 +5°C° 0.1 mm 3 mps 726 mmHg 63%
    17:00 +5°C° 0 mm 2 mps 727 mmHg 67%
    18:00 +4°C° 0 mm 2 mps 727 mmHg 72%
    19:00 +4°C° 0 mm 1 mps 727 mmHg 76%
    20:00 +4°C° 0 mm 1 mps 728 mmHg 78%
    21:00 +4°C° 0 mm 1 mps 728 mmHg 81%
    22:00 +4°C° 0 mm 1 mps 728 mmHg 83%
    23:00 +3°C° 0 mm 1 mps 728 mmHg 85%

    27 March, Wednesday

    Time Temperature Precipitation Wind Pressure Humidity
    00:00 +3°C° 0 mm 1 mps 729 mmHg 88%
    01:00 +2°C° 0 mm 1 mps 729 mmHg 90%
    02:00 +2°C° 0 mm 1 mps 729 mmHg 90%
    03:00 +1°C° 0 mm 1 mps 729 mmHg 90%
    04:00 +1°C° 0 mm 1 mps 729 mmHg 90%
    05:00 +2°C° 0 mm 1 mps 729 mmHg 85%
    06:00 +2°C° 0 mm 1 mps 729 mmHg 81%
    07:00 +2°C° 0 mm 0 mps 729 mmHg 76%
    08:00 +4°C° 0 mm 1 mps 729 mmHg 69%
    09:00 +5°C° 0 mm 2 mps 730 mmHg 61%
    10:00 +7°C° 0 mm 2 mps 730 mmHg 54%
    11:00 +7°C° 0 mm 2 mps 730 mmHg 54%
    12:00 +7°C° 0 mm 3 mps 729 mmHg 53%
    13:00 +8°C° 0 mm 3 mps 729 mmHg 53%
    14:00 +8°C° 0 mm 3 mps 729 mmHg 55%
    15:00 +7°C° 0 mm 3 mps 729 mmHg 57%
    16:00 +7°C° 0 mm 3 mps 729 mmHg 59%
    17:00 +6°C° 0 mm 2 mps 729 mmHg 64%
    18:00 +5°C° 0 mm 2 mps 729 mmHg 69%
    19:00 +5°C° 0 mm 1 mps 729 mmHg 74%
    20:00 +4°C° 0 mm 1 mps 729 mmHg 76%
    21:00 +4°C° 0 mm 1 mps 730 mmHg 78%
    22:00 +3°C° 0 mm 1 mps 730 mmHg 80%
    23:00 +3°C° 0 mm 1 mps 730 mmHg 81%

    28 March, Thursday

    Time Temperature Precipitation Wind Pressure Humidity
    00:00 +3°C° 0 mm 1 mps 730 mmHg 82%
    01:00 +2°C° 0 mm 1 mps 730 mmHg 83%
    02:00 +2°C° 0 mm 1 mps 730 mmHg 84%
    03:00 +2°C° 0 mm 1 mps 730 mmHg 84%
    04:00 +2°C° 0 mm 1 mps 730 mmHg 85%
    05:00 +2°C° 0 mm 1 mps 730 mmHg 81%
    06:00 +3°C° 0 mm 1 mps 731 mmHg 78%
    07:00 +3°C° 0 mm 1 mps 731 mmHg 74%
    08:00 +4°C° 0 mm 2 mps 731 mmHg 68%
    09:00 +5°C° 0 mm 2 mps 731 mmHg 61%
    10:00 +7°C° 0 mm 3 mps 731 mmHg 54%
    11:00 +8°C° 0 mm 3 mps 731 mmHg 53%
    12:00 +7°C° 0 mm 4 mps 731 mmHg 52%
    13:00 +8°C° 0 mm 4 mps 731 mmHg 51%
    14:00 +8°C° 0 mm 4 mps 731 mmHg 55%
    15:00 +9°C° 0 mm 3 mps 731 mmHg 59%
    16:00 +8°C° 0 mm 3 mps 730 mmHg 62%
    17:00 +7°C° 0 mm 3 mps 731 mmHg 70%
    18:00 +6°C° 0 mm 2 mps 731 mmHg 78%
    19:00 +5°C° 0 mm 1 mps 731 mmHg 86%
    20:00 +5°C° 0 mm 1 mps 731 mmHg 87%
    21:00 +4°C° 0 mm 1 mps 732 mmHg 89%
    22:00 +4°C° 0 mm 1 mps 732 mmHg 90%
    23:00 +4°C° 0 mm 1 mps 732 mmHg 90%
    Show more